TimePDT,TemperatureF,Dew PointF,Humidity,Sea Level PressureIn,VisibilityMPH,Wind Direction,Wind SpeedMPH,Gust SpeedMPH,PrecipitationIn,Events,Conditions,WindDirDegrees,DateUTC
12:53 AM,51.8,44.6,76,30.36,10.0,NW,8.1,-,N/A,,Clear,320,2013-05-20 07:53:00
1:53 AM,50.0,44.1,80,30.36,10.0,NW,8.1,-,N/A,,Partly Cloudy,320,2013-05-20 08:53:00
2:53 AM,48.9,44.1,83,30.36,10.0,NNW,5.8,-,N/A,,Partly Cloudy,330,2013-05-20 09:53:00
3:48 AM,48.2,44.6,87,30.34,10.0,Calm,Calm,-,N/A,,Mostly Cloudy,0,2013-05-20 10:48:00
3:53 AM,48.9,44.1,83,30.33,10.0,Calm,Calm,-,N/A,,Mostly Cloudy,0,2013-05-20 10:53:00
4:53 AM,48.2,44.6,87,30.32,10.0,Calm,Calm,-,N/A,,Overcast,0,2013-05-20 11:53:00
5:53 AM,48.9,44.1,83,30.31,10.0,Calm,Calm,-,N/A,,Overcast,0,2013-05-20 12:53:00
6:53 AM,50.0,44.1,80,30.29,10.0,Calm,Calm,-,N/A,,Overcast,0,2013-05-20 13:53:00
7:53 AM,51.1,45.0,80,30.29,10.0,Calm,Calm,-,N/A,,Overcast,0,2013-05-20 14:53:00
8:53 AM,54.0,46.0,75,30.28,10.0,Calm,Calm,-,N/A,,Overcast,0,2013-05-20 15:53:00
9:53 AM,54.0,46.0,75,30.25,10.0,Calm,Calm,-,N/A,,Overcast,0,2013-05-20 16:53:00
10:53 AM,55.0,46.0,72,30.23,10.0,NW,4.6,-,N/A,,Mostly Cloudy,310,2013-05-20 17:53:00
11:36 AM,57.2,46.4,67,30.22,10.0,NW,5.8,-,N/A,,Scattered Clouds,320,2013-05-20 18:36:00
11:53 AM,57.9,46.9,67,30.21,10.0,Variable,4.6,-,N/A,,Scattered Clouds,0,2013-05-20 18:53:00
12:53 PM,60.1,46.0,60,30.18,10.0,Variable,5.8,-,N/A,,Partly Cloudy,0,2013-05-20 19:53:00
1:53 PM,63.0,46.0,54,30.14,10.0,North,3.5,-,N/A,,Partly Cloudy,350,2013-05-20 20:53:00
2:53 PM,66.0,45.0,47,30.11,10.0,Variable,3.5,-,N/A,,Scattered Clouds,0,2013-05-20 21:53:00
3:53 PM,70.0,37.0,30,30.06,10.0,Calm,Calm,-,N/A,,Scattered Clouds,0,2013-05-20 22:53:00
4:53 PM,72.0,41.0,33,30.02,10.0,North,3.5,-,N/A,,Scattered Clouds,360,2013-05-20 23:53:00
5:53 PM,72.0,41.0,33,29.99,10.0,NW,4.6,-,N/A,,Scattered Clouds,320,2013-05-21 00:53:00
6:53 PM,71.6,42.8,35,29.96,10.0,Calm,Calm,-,N/A,,Scattered Clouds,0,2013-05-21 01:53:00
7:53 PM,69.1,42.1,38,29.94,10.0,NW,3.5,-,N/A,,Scattered Clouds,310,2013-05-21 02:53:00
8:53 PM,66.0,46.9,50,29.93,10.0,North,4.6,-,N/A,,Mostly Cloudy,350,2013-05-21 03:53:00
9:53 PM,62.1,48.0,60,29.93,10.0,NNW,4.6,-,N/A,,Scattered Clouds,340,2013-05-21 04:53:00
10:53 PM,59.0,46.9,64,29.92,10.0,NW,6.9,-,N/A,,Scattered Clouds,320,2013-05-21 05:53:00
11:53 PM,57.0,46.9,69,29.92,10.0,NW,6.9,-,N/A,,Mostly Cloudy,320,2013-05-21 06:53:00